Location: Arboucave
(43.6130°N, 0.4343°W)
Time: 13:25:00
(UTC+00:00)

SJ 16-02 - Pass Details

Date: 17 November 2025
Orbit: 585 x 594 km, 75.0° (Epoch: 06 December)

Event Time Altitude Azimuth Distance (km) Brightness Sun altitude
Rises 19:46:09 0° 246° (WSW) 2,829 5.5 -34.5°
Reaches altitude 10° 19:49:20 10° 271° (W) 1,931 4.7 -35.1°
Maximum altitude 19:51:40 14° 304° (NW) 1,671 4.1 -35.5°
Enters shadow 19:51:53 14° 307° (NW) 1,673 4.1 -35.6°
